| time (UTC) | temp F | wind direction | speed MPH | gust MPH | rain 1hr in | rain 24hr in | rain mn in | humidity % | barometer mb |
| 20260505010049 | 69 | 142 | 2.0 | 5.0 | 0.00 | 0.00 | 0.00 | 47 | 1008.7 |
| 20260505004552 | 70 | 0 | 0.0 | 2.0 | 0.00 | 0.00 | 0.00 | 45 | 1008.4 |
| 20260505003045 | 72 | 0 | 0.0 | 4.0 | 0.00 | 0.00 | 0.00 | 42 | 1008.4 |
| 20260505001545 | 73 | 0 | 3.0 | 13.0 | 0.00 | 0.00 | 0.00 | 39 | 1008.3 |
| 20260505000105 | 73 | 225 | 4.0 | 10.0 | 0.00 | 0.00 | 0.00 | 40 | 1008.2 |
| 20260504234549 | 73 | 182 | 1.0 | 5.0 | 0.00 | 0.00 | 0.00 | 41 | 1008.0 |
| 20260504233105 | 73 | 153 | 1.0 | 6.0 | 0.00 | 0.00 | 0.00 | 39 | 1007.8 |
| 20260504231548 | 74 | 184 | 3.0 | 11.0 | 0.00 | 0.00 | 0.00 | 38 | 1007.8 |
| 20260504230050 | 74 | 17 | 5.0 | 11.0 | 0.00 | 0.00 | 0.00 | 36 | 1008.0 |
| 20260504224550 | 76 | 214 | 4.0 | 14.0 | 0.00 | 0.00 | 0.00 | 35 | 1008.0 |
| 20260504223100 | 76 | 225 | 6.0 | 14.0 | 0.00 | 0.00 | 0.00 | 34 | 1008.1 |
| 20260504221547 | 76 | 227 | 6.0 | 18.0 | 0.00 | 0.00 | 0.00 | 34 | 1008.0 |
| 20260504220054 | 77 | 230 | 7.0 | 17.0 | 0.00 | 0.00 | 0.00 | 32 | 1008.0 |
| 20260504214551 | 77 | 247 | 6.0 | 21.0 | 0.00 | 0.00 | 0.00 | 32 | 1007.8 |
| 20260504213053 | 77 | 218 | 7.0 | 20.0 | 0.00 | 0.00 | 0.00 | 32 | 1007.6 |
| 20260504211549 | 77 | 149 | 7.0 | 18.0 | 0.00 | 0.00 | 0.00 | 32 | 1007.7 |
| 20260504210051 | 77 | 194 | 5.0 | 22.0 | 0.00 | 0.00 | 0.00 | 32 | 1007.7 |
| 20260504204550 | 78 | 198 | 5.0 | 15.0 | 0.00 | 0.00 | 0.00 | 30 | 1007.7 |
| 20260504203059 | 77 | 144 | 6.0 | 21.0 | 0.00 | 0.00 | 0.00 | 32 | 1007.8 |
| 20260504201544 | 75 | 161 | 7.0 | 16.0 | 0.00 | 0.00 | 0.00 | 33 | 1008.2 |
| 20260504200040 | 76 | 220 | 10.0 | 21.0 | 0.00 | 0.00 | 0.00 | 31 | 1008.2 |
| 20260504194546 | 76 | 213 | 9.0 | 19.0 | 0.00 | 0.00 | 0.00 | 31 | 1008.5 |
| 20260504193048 | 76 | 246 | 7.0 | 20.0 | 0.00 | 0.00 | 0.00 | 31 | 1008.6 |
| 20260504191539 | 77 | 153 | 6.0 | 17.0 | 0.00 | 0.00 | 0.00 | 31 | 1009.1 |
| 20260504190048 | 76 | 221 | 10.0 | 20.0 | 0.00 | 0.00 | 0.00 | 31 | 1009.2 |
| 20260504184540 | 74 | 206 | 5.0 | 18.0 | 0.00 | 0.00 | 0.00 | 31 | 1009.4 |
| 20260504183049 | 75 | 0 | 5.0 | 19.0 | 0.00 | 0.00 | 0.00 | 31 | 1009.4 |
| 20260504181547 | 76 | 240 | 10.0 | 20.0 | 0.00 | 0.00 | 0.00 | 30 | 1009.7 |
| 20260504180047 | 75 | 140 | 6.0 | 25.0 | 0.00 | 0.00 | 0.00 | 31 | 1010.0 |
| 20260504174547 | 75 | 242 | 10.0 | 26.0 | 0.00 | 0.00 | 0.00 | 31 | 1010.2 |
| 20260504173046 | 74 | 217 | 6.0 | 17.0 | 0.00 | 0.00 | 0.00 | 32 | 1010.4 |
| 20260504171553 | 72 | 221 | 9.0 | 16.0 | 0.00 | 0.00 | 0.00 | 33 | 1010.7 |
| 20260504081541 | 39 | 0 | 0.0 | 0.0 | 0.00 | 0.00 | 0.00 | 78 | 1014.6 |
| 20260504044559 | 42 | 162 | 1.0 | 4.0 | 0.00 | 0.00 | 0.00 | 72 | 1015.2 |
| 20260504043055 | 42 | 180 | 1.0 | 4.0 | 0.00 | 0.00 | 0.00 | 72 | 1015.2 |
| 20260504041549 | 43 | 0 | 1.0 | 4.0 | 0.00 | 0.00 | 0.00 | 71 | 1015.1 |
| 20260504040104 | 43 | 171 | 2.0 | 4.0 | 0.00 | 0.00 | 0.00 | 71 | 1015.2 |
| 20260504034611 | 44 | 0 | 0.0 | 0.0 | 0.00 | 0.00 | 0.00 | 68 | 1015.2 |
| 20260504033047 | 44 | 0 | 0.0 | 0.0 | 0.00 | 0.00 | 0.00 | 67 | 1015.0 |
| 20260504031544 | 45 | 0 | 0.0 | 2.0 | 0.00 | 0.00 | 0.00 | 66 | 1015.0 |
| 20260504030048 | 45 | 0 | 0.0 | 0.0 | 0.00 | 0.00 | 0.00 | 65 | 1015.1 |
| 20260504024549 | 46 | 0 | 0.0 | 4.0 | 0.00 | 0.00 | 0.00 | 63 | 1015.0 |
| 20260504023048 | 46 | 360 | 1.0 | 4.0 | 0.00 | 0.00 | 0.00 | 61 | 1015.0 |
| 20260504021550 | 47 | 0 | 0.0 | 3.0 | 0.00 | 0.00 | 0.00 | 59 | 1015.0 |
| 20260504020043 | 48 | 360 | 1.0 | 3.0 | 0.00 | 0.00 | 0.00 | 57 | 1014.7 |
| 20260504014543 | 48 | 0 | 1.0 | 3.0 | 0.00 | 0.00 | 0.00 | 55 | 1014.6 |
| 20260504013053 | 49 | 360 | 1.0 | 3.0 | 0.00 | 0.00 | 0.00 | 53 | 1014.6 |
| 20260504011548 | 51 | 0 | 0.0 | 2.0 | 0.00 | 0.00 | 0.00 | 50 | 1014.6 |